| time (UTC) | temp F | wind direction | speed knots | gust knots | rain 1hr in | rain 24hr in | rain mn in | humidity % | barometer mb |
| 20260906083036 | 69 | 0 | 0.0 | 0.0 | 0.00 | 0.04 | 0.00 | 99 | 1012.9 |
| 20260906081547 | 69 | 0 | 0.0 | 0.0 | 0.00 | 0.04 | 0.00 | 99 | 1012.8 |
| 20260906080036 | 69 | 0 | 0.0 | 0.0 | 0.00 | 0.04 | 0.00 | 99 | 1012.6 |
| 20260906074536 | 69 | 0 | 0.0 | 0.0 | 0.00 | 0.04 | 0.00 | 99 | 1012.6 |
| 20260906073048 | 69 | 0 | 0.0 | 0.0 | 0.00 | 0.04 | 0.00 | 99 | 1012.4 |
| 20260906071533 | 69 | 0 | 0.0 | 0.0 | 0.00 | 0.04 | 0.00 | 99 | 1012.6 |
| 20260906070039 | 69 | 0 | 0.0 | 0.0 | 0.00 | 0.04 | 0.00 | 99 | 1012.6 |
| 20260906064533 | 69 | 0 | 0.0 | 0.0 | 0.00 | 0.04 | 0.00 | 99 | 1012.7 |
| 20260906063034 | 69 | 0 | 0.0 | 0.0 | 0.00 | 0.04 | 0.00 | 99 | 1012.7 |
| 20260906061535 | 70 | 0 | 0.0 | 0.0 | 0.00 | 0.04 | 0.00 | 99 | 1013.0 |
| 20260906060032 | 70 | 0 | 0.0 | 0.0 | 0.00 | 0.04 | 0.00 | 99 | 1013.3 |
| 20260906054532 | 70 | 0 | 0.0 | 0.0 | 0.00 | 0.04 | 0.00 | 99 | 1013.7 |
| 20260906053038 | 70 | 0 | 0.0 | 0.0 | 0.00 | 0.04 | 0.00 | 99 | 1013.9 |
| 20260906051535 | 70 | 0 | 0.0 | 0.0 | 0.00 | 0.04 | 0.00 | 99 | 1013.8 |
| 20260906050038 | 70 | 0 | 0.0 | 0.0 | 0.00 | 0.04 | 0.00 | 99 | 1013.9 |
| 20260906044536 | 70 | 0 | 0.0 | 0.0 | 0.00 | 0.04 | 0.00 | 99 | 1014.0 |
| 20260906043044 | 70 | 0 | 0.0 | 0.0 | 0.00 | 0.04 | 0.00 | 99 | 1013.8 |
| 20260906041534 | 70 | 0 | 0.0 | 0.0 | 0.00 | 0.04 | 0.00 | 99 | 1013.8 |
| 20260906040036 | 70 | 194 | 0.0 | 2.6 | 0.00 | 0.04 | 0.00 | 99 | 1014.1 |
| 20260906034534 | 71 | 217 | 0.9 | 4.3 | 0.00 | 0.04 | 0.04 | 98 | 1014.2 |
| 20260906033034 | 71 | 0 | 0.0 | 0.0 | 0.00 | 0.04 | 0.04 | 98 | 1014.0 |
| 20260906031533 | 71 | 0 | 0.0 | 2.6 | 0.00 | 0.04 | 0.04 | 99 | 1014.0 |
| 20260906030033 | 71 | 0 | 0.0 | 0.9 | 0.00 | 0.04 | 0.04 | 99 | 1013.9 |
| 20260906024537 | 71 | 0 | 0.9 | 4.3 | 0.00 | 0.04 | 0.04 | 98 | 1013.8 |
| 20260906023037 | 71 | 231 | 0.0 | 2.6 | 0.00 | 0.04 | 0.04 | 98 | 1014.0 |
| 20260906021535 | 72 | 0 | 0.0 | 0.9 | 0.00 | 0.04 | 0.04 | 98 | 1013.7 |
| 20260906020032 | 72 | 0 | 0.0 | 2.6 | 0.00 | 0.04 | 0.04 | 98 | 1013.8 |
| 20260906014544 | 72 | 189 | 1.7 | 4.3 | 0.00 | 0.04 | 0.04 | 98 | 1013.7 |
| 20260906013036 | 72 | 0 | 0.0 | 0.0 | 0.00 | 0.04 | 0.04 | 97 | 1013.3 |
| 20260906011544 | 72 | 0 | 0.0 | 0.0 | 0.00 | 0.04 | 0.04 | 97 | 1013.4 |
| 20260906010034 | 72 | 0 | 0.0 | 0.0 | 0.00 | 0.04 | 0.04 | 97 | 1013.2 |
| 20260906004533 | 72 | 0 | 0.0 | 0.0 | 0.00 | 0.04 | 0.04 | 97 | 1013.0 |
| 20260906003035 | 73 | 0 | 0.0 | 0.0 | 0.00 | 0.04 | 0.04 | 97 | 1012.8 |
| 20260906001534 | 73 | 27 | 0.9 | 2.6 | 0.00 | 0.04 | 0.04 | 96 | 1012.8 |
| 20260906000038 | 73 | 0 | 0.0 | 0.0 | 0.00 | 0.04 | 0.04 | 96 | 1012.9 |
| 20260905234543 | 74 | 0 | 0.0 | 0.0 | 0.00 | 0.04 | 0.04 | 95 | 1012.8 |
| 20260905233035 | 74 | 0 | 0.0 | 0.0 | 0.00 | 0.04 | 0.04 | 94 | 1013.0 |
| 20260905231535 | 75 | 0 | 0.0 | 0.0 | 0.00 | 0.04 | 0.04 | 95 | 1012.8 |
| 20260905230041 | 75 | 0 | 0.0 | 3.5 | 0.00 | 0.04 | 0.04 | 93 | 1012.5 |
| 20260905224538 | 75 | 0 | 0.0 | 2.6 | 0.00 | 0.04 | 0.04 | 91 | 1012.6 |
| 20260905223038 | 75 | 223 | 0.9 | 3.5 | 0.00 | 0.04 | 0.04 | 92 | 1012.5 |
| 20260905221536 | 75 | 202 | 0.0 | 0.9 | 0.00 | 0.04 | 0.04 | 91 | 1012.5 |
| 20260905220035 | 74 | 0 | 0.0 | 3.5 | 0.00 | 0.04 | 0.04 | 93 | 1012.8 |
| 20260905214534 | 75 | 240 | 2.6 | 4.3 | 0.00 | 0.04 | 0.04 | 91 | 1012.9 |
| 20260905213034 | 75 | 0 | 0.0 | 5.2 | 0.00 | 0.04 | 0.04 | 91 | 1013.0 |
| 20260905211609 | 74 | 355 | 4.3 | 7.0 | 0.00 | 0.04 | 0.04 | 92 | 1013.0 |
| 20260905210034 | 74 | 124 | 0.0 | 2.6 | 0.00 | 0.04 | 0.04 | 93 | 1013.8 |
| 20260905204535 | 73 | 55 | 1.7 | 4.3 | 0.00 | 0.04 | 0.04 | 95 | 1013.5 |
| 20260905203037 | 72 | 38 | 5.2 | 8.7 | 0.00 | 0.04 | 0.04 | 95 | 1013.5 |
| 20260905201537 | 72 | 51 | 0.0 | 5.2 | 0.00 | 0.04 | 0.04 | 93 | 1013.2 |
| 20260905200045 | 72 | 11 | 1.7 | 7.0 | 0.01 | 0.04 | 0.04 | 91 | 1014.0 |
| 20260905194534 | 74 | 0 | 0.0 | 2.6 | 0.04 | 0.04 | 0.04 | 91 | 1014.1 |
| 20260905193038 | 75 | 75 | 3.5 | 13.0 | 0.04 | 0.04 | 0.04 | 90 | 1014.7 |
| 20260905191537 | 75 | 55 | 3.5 | 9.6 | 0.04 | 0.04 | 0.04 | 92 | 1014.1 |
| 20260905190046 | 77 | 35 | 9.6 | 16.5 | 0.02 | 0.02 | 0.02 | 86 | 1013.7 |
| 20260905184550 | 82 | 34 | 8.7 | 18.2 | 0.00 | 0.00 | 0.00 | 69 | 1013.8 |
| 20260905183033 | 83 | 22 | 4.3 | 21.7 | 0.00 | 0.00 | 0.00 | 66 | 1014.1 |
| 20260905181533 | 90 | 32 | 11.3 | 20.9 | 0.00 | 0.00 | 0.00 | 55 | 1013.9 |
| 20260905180035 | 93 | 93 | 0.0 | 7.0 | 0.00 | 0.00 | 0.00 | 55 | 1013.6 |
| 20260905174533 | 94 | 0 | 0.9 | 4.3 | 0.00 | 0.00 | 0.00 | 54 | 1013.9 |
| 20260905173035 | 93 | 0 | 0.0 | 7.0 | 0.00 | 0.00 | 0.00 | 56 | 1013.7 |
| 20260905171536 | 93 | 232 | 3.5 | 7.0 | 0.00 | 0.00 | 0.00 | 57 | 1013.6 |
| 20260905170032 | 92 | 184 | 2.6 | 7.0 | 0.00 | 0.00 | 0.00 | 56 | 1014.0 |
| 20260905164538 | 92 | 197 | 2.6 | 5.2 | 0.00 | 0.00 | 0.00 | 59 | 1014.4 |
| 20260905163036 | 92 | 248 | 0.9 | 7.0 | 0.00 | 0.00 | 0.00 | 63 | 1014.6 |
| 20260905161537 | 91 | 197 | 1.7 | 6.1 | 0.00 | 0.00 | 0.00 | 62 | 1014.9 |
| 20260905160035 | 90 | 191 | 0.9 | 3.5 | 0.00 | 0.00 | 0.00 | 64 | 1014.9 |
| 20260905154533 | 89 | 190 | 1.7 | 3.5 | 0.00 | 0.00 | 0.00 | 66 | 1015.1 |
| 20260905153049 | 88 | 0 | 0.9 | 4.3 | 0.00 | 0.00 | 0.00 | 68 | 1015.3 |
| 20260905151540 | 87 | 0 | 0.0 | 3.5 | 0.00 | 0.00 | 0.00 | 71 | 1015.4 |
| 20260905150033 | 86 | 0 | 0.0 | 2.6 | 0.00 | 0.00 | 0.00 | 74 | 1015.4 |
| 20260905144534 | 85 | 0 | 0.0 | 1.7 | 0.00 | 0.00 | 0.00 | 75 | 1015.5 |
| 20260905143038 | 84 | 0 | 0.0 | 1.7 | 0.00 | 0.00 | 0.00 | 77 | 1015.6 |
| 20260905141536 | 83 | 0 | 0.9 | 2.6 | 0.00 | 0.00 | 0.00 | 80 | 1015.6 |
| 20260905140034 | 83 | 0 | 0.0 | 0.0 | 0.00 | 0.00 | 0.00 | 81 | 1015.7 |
| 20260905134533 | 81 | 0 | 0.0 | 0.0 | 0.00 | 0.00 | 0.00 | 83 | 1015.9 |
| 20260905133036 | 82 | 0 | 0.0 | 0.0 | 0.00 | 0.00 | 0.00 | 83 | 1015.9 |
| 20260905131548 | 79 | 0 | 0.0 | 0.0 | 0.00 | 0.00 | 0.00 | 86 | 1015.8 |
| 20260905130040 | 78 | 0 | 0.0 | 0.0 | 0.00 | 0.00 | 0.00 | 89 | 1015.7 |
| 20260905124536 | 75 | 0 | 0.0 | 0.0 | 0.00 | 0.00 | 0.00 | 94 | 1015.7 |
| 20260905123035 | 73 | 0 | 0.0 | 0.0 | 0.00 | 0.00 | 0.00 | 97 | 1015.7 |
| 20260905121537 | 72 | 0 | 0.0 | 0.0 | 0.00 | 0.00 | 0.00 | 97 | 1015.5 |
| 20260905120039 | 71 | 0 | 0.0 | 0.0 | 0.00 | 0.00 | 0.00 | 98 | 1015.5 |
| 20260905114534 | 71 | 0 | 0.0 | 0.0 | 0.00 | 0.00 | 0.00 | 98 | 1015.5 |
| 20260905113036 | 70 | 0 | 0.0 | 0.0 | 0.00 | 0.00 | 0.00 | 98 | 1015.2 |
| 20260905111554 | 70 | 0 | 0.0 | 0.0 | 0.00 | 0.00 | 0.00 | 98 | 1015.1 |
| 20260905110035 | 70 | 0 | 0.0 | 0.0 | 0.00 | 0.00 | 0.00 | 98 | 1014.9 |
| 20260905104534 | 70 | 0 | 0.0 | 0.0 | 0.00 | 0.00 | 0.00 | 98 | 1014.8 |
| 20260905103036 | 71 | 0 | 0.0 | 0.0 | 0.00 | 0.00 | 0.00 | 98 | 1014.8 |
| 20260905101534 | 71 | 0 | 0.0 | 0.0 | 0.00 | 0.00 | 0.00 | 98 | 1014.6 |
| 20260905100035 | 71 | 0 | 0.0 | 0.0 | 0.00 | 0.00 | 0.00 | 98 | 1014.6 |
| 20260905094534 | 71 | 0 | 0.0 | 0.0 | 0.00 | 0.00 | 0.00 | 98 | 1014.4 |
| 20260905093036 | 71 | 0 | 0.0 | 0.0 | 0.00 | 0.00 | 0.00 | 98 | 1014.4 |
| 20260905091535 | 71 | 0 | 0.0 | 0.0 | 0.00 | 0.00 | 0.00 | 98 | 1014.6 |
| 20260905090035 | 71 | 0 | 0.0 | 0.0 | 0.00 | 0.00 | 0.00 | 98 | 1014.5 |
| 20260905084536 | 71 | 0 | 0.0 | 0.0 | 0.00 | 0.00 | 0.00 | 97 | 1014.6 |